Universal City, TX

11:25 PM CDT on August 23, 2016 (GMT -0500)
Randolph Air Force Base

Weather History for KRND - December, 2013

Change the Weather History Date:

Wednesday, December 18, 2013

  Actual Average Record
Temperature  
Mean Temperature 54 °F -  
Max Temperature 70 °F 60 °F 81 °F (2012)
Min Temperature 37 °F 39 °F 23 °F (1996)
Degree Days  
Heating Degree Days 12    
Growing Degree Days 4 (Base 50)    
Moisture  
Dew Point 43 °F    
Average Humidity 77    
Maximum Humidity 93    
Minimum Humidity 41    
Precipitation  
Precipitation 0.00 in - - ()
Sea Level Pressure  
Sea Level Pressure 30.21 in    
Wind  
Wind Speed 6 mph (West)    
Max Wind Speed 14 mph    
Max Gust Speed 17 mph    
Visibility 8 miles    
Events Fog , Rain    
Averages and records for this station are not official NWS values.
T = Trace of Precipitation, MM = Missing Value Source: NWS Daily Summary

Daily Weather History Graph

Daily Weather History Graph

Search for Another Location

Airport or City:

Trip Planner

Search our weather history database for the weather conditions in past years. The results will help you decide how hot, cold, wet, or windy it might be!

Date:

Astronomy

Dec. 18, 2013 Rise Set
Actual Time 7:22 AM CST 5:37 PM CST
Civil Twilight 6:56 AM CST 6:03 PM CST
Nautical Twilight 6:26 AM CST 6:33 PM CST
Astronomical Twilight 5:57 AM CST 7:02 PM CST
Moon 7:04 PM CST (12/18) 8:08 AM CST (12/18)
Length of Visible Light 11h 07m
Length of Day
10h 15m
Full, 98% of the Moon is Illuminated
Dec 18
Full
Dec 25
Last Quarter
Jan 1
New
Jan 7
First Quarter
Jan 15
Full

Hourly Weather History & Observations

Time (CST) Temp. Windchill Dew Point Humidity Pressure Visibility Wind Dir Wind Speed Gust Speed Precip Events Conditions
12:58 AM 39.4 °F 36.1 °F 34.0 °F 81% 30.29 in 10.0 mi NNW 4.6 mph - N/A   Clear
1:58 AM 37.6 °F 33.1 °F 32.9 °F 83% 30.28 in 10.0 mi NNW 5.8 mph - N/A   Clear
2:58 AM 37.8 °F 34.2 °F 33.1 °F 83% 30.27 in 10.0 mi NW 4.6 mph - N/A   Clear
3:58 AM 37.2 °F 32.6 °F 33.3 °F 86% 30.27 in 10.0 mi NNW 5.8 mph - N/A   Clear
4:58 AM 38.1 °F 33.7 °F 34.5 °F 87% 30.27 in 10.0 mi NNW 5.8 mph - N/A   Clear
5:58 AM 37.8 °F 33.3 °F 34.9 °F 89% 30.27 in 10.0 mi NNW 5.8 mph - N/A   Clear
6:53 AM 41.0 °F 38.0 °F 39.2 °F 93% 30.27 in 5.0 mi NNW 4.6 mph - N/A   Clear
6:58 AM 40.5 °F 35.8 °F 38.3 °F 92% 30.28 in 5.0 mi NNW 6.9 mph - N/A   Clear
7:13 AM 41.0 °F 37.1 °F 39.2 °F 93% 30.27 in 4.0 mi NNW 5.8 mph - N/A   Clear
7:43 AM 41.0 °F 37.1 °F 39.2 °F 93% 30.28 in 6.0 mi NNW 5.8 mph - N/A   Clear
7:58 AM 41.0 °F 38.0 °F 39.2 °F 93% 30.29 in 2.0 mi NNW 4.6 mph - N/A   Partly Cloudy
8:01 AM 41.0 °F 37.1 °F 39.2 °F 93% 30.28 in 1.0 mi NNW 5.8 mph - N/A   Partly Cloudy
8:03 AM 41.0 °F 36.4 °F 39.2 °F 93% 30.28 in 0.5 mi NNW 6.9 mph - N/A Fog Fog
8:10 AM 41.0 °F 37.1 °F 39.2 °F 93% 30.28 in 1.0 mi North 5.8 mph - N/A Fog Fog
8:15 AM 42.8 °F 40.1 °F 41.0 °F 93% 30.28 in 4.0 mi North 4.6 mph - N/A   Clear
8:28 AM 44.6 °F 43.1 °F 42.8 °F 93% 30.28 in 5.0 mi North 3.5 mph - N/A   Partly Cloudy
8:58 AM 47.8 °F - 45.5 °F 92% 30.30 in 10.0 mi North 3.5 mph - N/A   Clear
9:58 AM 57.9 °F - 50.5 °F 76% 30.29 in 10.0 mi South 4.6 mph - N/A   Clear
10:58 AM 62.1 °F - 50.5 °F 66% 30.28 in 10.0 mi Variable 6.9 mph - N/A   Clear
11:58 AM 65.8 °F - 52.0 °F 61% 30.24 in 10.0 mi SSW 8.1 mph - N/A   Clear
12:58 PM 67.8 °F - 50.5 °F 54% 30.20 in 10.0 mi South 13.8 mph 17.3 mph N/A   Partly Cloudy
1:58 PM 69.1 °F - 48.6 °F 48% 30.16 in 10.0 mi SSE 13.8 mph - N/A   Scattered Clouds
2:58 PM 70.7 °F - 47.1 °F 43% 30.13 in 10.0 mi SSW 9.2 mph - N/A   Partly Cloudy
3:58 PM 70.9 °F - 46.0 °F 41% 30.11 in 10.0 mi SSE 12.7 mph - N/A   Clear
4:58 PM 68.5 °F - 46.4 °F 45% 30.10 in 10.0 mi South 8.1 mph - N/A   Clear
5:58 PM 58.8 °F - 45.5 °F 61% 30.10 in 10.0 mi SSE 8.1 mph - N/A   Clear
6:58 PM 56.8 °F - 45.1 °F 65% 30.10 in 10.0 mi SSE 6.9 mph - N/A   Clear
7:58 PM 57.7 °F - 46.4 °F 66% 30.10 in 10.0 mi SSE 11.5 mph - N/A   Clear
8:58 PM 57.2 °F - 48.0 °F 71% 30.11 in 10.0 mi SSE 11.5 mph - N/A   Clear
9:58 PM 55.9 °F - 48.9 °F 77% 30.10 in 10.0 mi South 9.2 mph - N/A   Clear
10:58 PM 54.7 °F - 48.7 °F 80% 30.10 in 10.0 mi South 8.1 mph - N/A   Clear
11:18 PM 53.6 °F - 48.2 °F 82% 30.09 in 10.0 mi South 8.1 mph - N/A Rain Light Rain
11:22 PM 53.6 °F - 48.2 °F 82% 30.08 in 10.0 mi South 8.1 mph - N/A   Partly Cloudy
11:58 PM 56.3 °F - 50.2 °F 80% 30.07 in 10.0 mi South 8.1 mph - 0.00 in   Overcast